Time,TemperatureF,DewpointF,PressureIn,WindDirection,WindDirectionDegrees,WindSpeedMPH,WindSpeedGustMPH,Humidity,HourlyPrecipIn,Conditions,Clouds,dailyrainin,SoftwareType,DateUTC
2013-03-22 00:00:00,47.7,43.4,29.99,ESE,121,0.0,3.0,85,0.00,,,0.00,Wunderground v.1.15,2013-03-22 04:00:00,
2013-03-22 00:02:00,47.8,43.5,29.99,ESE,121,0.0,3.0,85,0.00,,,0.00,Wunderground v.1.15,2013-03-22 04:02:00,
2013-03-22 00:03:00,47.9,43.9,29.99,ESE,121,0.0,3.0,86,0.00,,,0.00,Wunderground v.1.15,2013-03-22 04:03:00,
2013-03-22 00:08:00,47.4,43.1,29.99,ESE,121,0.0,3.0,85,0.00,,,0.00,Wunderground v.1.15,2013-03-22 04:08:00,
2013-03-22 00:13:00,46.9,42.6,30.00,ESE,121,0.0,3.0,85,0.00,,,0.00,Wunderground v.1.15,2013-03-22 04:13:00,
2013-03-22 00:18:00,46.8,42.8,30.00,ESE,121,0.0,3.0,86,0.00,,,0.00,Wunderground v.1.15,2013-03-22 04:18:00,
2013-03-22 00:23:00,46.4,42.4,29.99,ESE,121,0.0,3.0,86,0.00,,,0.00,Wunderground v.1.15,2013-03-22 04:23:00,
2013-03-22 00:29:00,46.0,42.0,30.00,ESE,121,0.0,3.0,86,0.00,,,0.00,Wunderground v.1.15,2013-03-22 04:29:00,
2013-03-22 00:34:00,45.9,42.2,30.00,ESE,121,0.0,3.0,87,0.00,,,0.00,Wunderground v.1.15,2013-03-22 04:34:00,
2013-03-22 00:39:00,45.9,42.5,30.00,ESE,121,0.0,3.0,88,0.00,,,0.00,Wunderground v.1.15,2013-03-22 04:39:00,
2013-03-22 00:45:00,45.9,42.5,29.99,ESE,121,0.0,3.0,88,0.00,,,0.00,Wunderground v.1.15,2013-03-22 04:45:00,
2013-03-22 00:51:00,46.3,43.2,29.99,ESE,121,0.0,3.0,89,0.00,,,0.00,Wunderground v.1.15,2013-03-22 04:51:00,
2013-03-22 00:56:00,46.4,43.3,29.99,ESE,121,0.0,3.0,89,0.00,,,0.00,Wunderground v.1.15,2013-03-22 04:56:00,
2013-03-22 01:01:00,46.1,43.0,29.99,ESE,121,0.0,3.0,89,0.00,,,0.00,Wunderground v.1.15,2013-03-22 05:01:00,
2013-03-22 01:07:00,45.9,42.8,29.99,ESE,121,0.0,3.0,89,0.00,,,0.00,Wunderground v.1.15,2013-03-22 05:07:00,
2013-03-22 01:12:00,45.8,42.7,29.98,ESE,121,0.0,3.0,89,0.00,,,0.00,Wunderground v.1.15,2013-03-22 05:12:00,
2013-03-22 01:17:00,45.8,43.0,29.98,ESE,121,0.0,3.0,90,0.00,,,0.00,Wunderground v.1.15,2013-03-22 05:17:00,
2013-03-22 01:23:00,45.7,42.9,29.98,ESE,121,0.0,3.0,90,0.00,,,0.00,Wunderground v.1.15,2013-03-22 05:23:00,
2013-03-22 01:28:00,45.2,42.2,29.99,ESE,121,0.0,3.0,89,0.00,,,0.00,Wunderground v.1.15,2013-03-22 05:28:00,
2013-03-22 01:34:00,45.1,42.3,29.99,ESE,121,0.0,3.0,90,0.00,,,0.00,Wunderground v.1.15,2013-03-22 05:34:00,
2013-03-22 01:40:00,45.1,42.3,29.99,ESE,121,0.0,3.0,90,0.00,,,0.00,Wunderground v.1.15,2013-03-22 05:40:00,
2013-03-22 01:45:00,45.1,42.6,29.98,ESE,121,0.0,3.0,91,0.00,,,0.00,Wunderground v.1.15,2013-03-22 05:45:00,
2013-03-22 01:51:00,45.2,42.7,29.98,ESE,121,0.0,3.0,91,0.00,,,0.00,Wunderground v.1.15,2013-03-22 05:51:00,
2013-03-22 01:57:00,45.5,43.0,29.97,ESE,121,0.0,3.0,91,0.00,,,0.00,Wunderground v.1.15,2013-03-22 05:57:00,
2013-03-22 02:02:00,45.4,42.9,29.97,ESE,121,0.0,3.0,91,0.00,,,0.00,Wunderground v.1.15,2013-03-22 06:02:00,
2013-03-22 02:08:00,45.4,42.9,29.97,ESE,121,0.0,3.0,91,0.00,,,0.00,Wunderground v.1.15,2013-03-22 06:08:00,
2013-03-22 02:13:00,44.9,42.1,29.98,ESE,121,0.0,3.0,90,0.00,,,0.00,Wunderground v.1.15,2013-03-22 06:13:00,
2013-03-22 02:18:00,43.8,41.1,29.98,ESE,121,0.0,3.0,90,0.00,,,0.00,Wunderground v.1.15,2013-03-22 06:18:00,
2013-03-22 02:23:00,43.2,40.5,29.98,ESE,121,0.0,3.0,90,0.00,,,0.00,Wunderground v.1.15,2013-03-22 06:23:00,
2013-03-22 02:29:00,42.8,40.4,29.98,ESE,121,0.0,3.0,91,0.00,,,0.00,Wunderground v.1.15,2013-03-22 06:29:00,
2013-03-22 02:34:00,42.9,40.7,29.98,ESE,121,0.0,3.0,92,0.00,,,0.00,Wunderground v.1.15,2013-03-22 06:34:00,
2013-03-22 02:39:00,43.0,40.8,29.97,ESE,121,0.0,3.0,92,0.00,,,0.00,Wunderground v.1.15,2013-03-22 06:39:00,
2013-03-22 02:44:00,43.1,40.9,29.98,ESE,121,0.0,3.0,92,0.00,,,0.00,Wunderground v.1.15,2013-03-22 06:44:00,
2013-03-22 02:50:00,43.3,41.1,29.98,ESE,121,0.0,3.0,92,0.00,,,0.00,Wunderground v.1.15,2013-03-22 06:50:00,
2013-03-22 02:56:00,43.4,41.5,29.97,ESE,121,0.0,3.0,93,0.00,,,0.00,Wunderground v.1.15,2013-03-22 06:56:00,
2013-03-22 03:01:00,43.5,41.6,29.97,ESE,121,0.0,3.0,93,0.00,,,0.00,Wunderground v.1.15,2013-03-22 07:01:00,
2013-03-22 03:06:00,43.6,41.7,29.97,ESE,121,0.0,3.0,93,0.00,,,0.00,Wunderground v.1.15,2013-03-22 07:06:00,
2013-03-22 03:11:00,43.6,41.7,29.97,ESE,121,0.0,3.0,93,0.00,,,0.00,Wunderground v.1.15,2013-03-22 07:11:00,
2013-03-22 03:17:00,43.2,41.3,29.97,ESE,121,0.0,3.0,93,0.00,,,0.00,Wunderground v.1.15,2013-03-22 07:17:00,
2013-03-22 03:23:00,43.1,41.2,29.97,ESE,121,0.0,3.0,93,0.00,,,0.00,Wunderground v.1.15,2013-03-22 07:23:00,
2013-03-22 03:28:00,42.9,41.0,29.96,ESE,121,0.0,3.0,93,0.00,,,0.00,Wunderground v.1.15,2013-03-22 07:28:00,
2013-03-22 03:33:00,42.7,40.8,29.96,ESE,121,0.0,3.0,93,0.00,,,0.00,Wunderground v.1.15,2013-03-22 07:33:00,
2013-03-22 03:38:00,42.5,40.6,29.96,ESE,121,0.0,3.0,93,0.00,,,0.00,Wunderground v.1.15,2013-03-22 07:38:00,
2013-03-22 03:43:00,42.0,40.1,29.97,ESE,121,0.0,3.0,93,0.00,,,0.00,Wunderground v.1.15,2013-03-22 07:43:00,
2013-03-22 03:49:00,42.4,40.5,29.97,ESE,121,0.0,3.0,93,0.00,,,0.00,Wunderground v.1.15,2013-03-22 07:49:00,
2013-03-22 03:55:00,42.5,40.6,29.96,ESE,121,0.0,3.0,93,0.00,,,0.00,Wunderground v.1.15,2013-03-22 07:55:00,
2013-03-22 04:01:00,42.2,40.3,29.96,ESE,121,0.0,3.0,93,0.00,,,0.00,Wunderground v.1.15,2013-03-22 08:01:00,
2013-03-22 04:06:00,42.0,40.1,29.96,ESE,121,0.0,3.0,93,0.00,,,0.00,Wunderground v.1.15,2013-03-22 08:06:00,
2013-03-22 04:11:00,42.0,40.1,29.97,ESE,121,0.0,3.0,93,0.00,,,0.00,Wunderground v.1.15,2013-03-22 08:11:00,
2013-03-22 04:17:00,42.3,40.4,29.97,ESE,121,0.0,3.0,93,0.00,,,0.00,Wunderground v.1.15,2013-03-22 08:17:00,
2013-03-22 04:22:00,42.3,40.4,29.97,ESE,121,0.0,3.0,93,0.00,,,0.00,Wunderground v.1.15,2013-03-22 08:22:00,
2013-03-22 04:27:00,42.4,40.8,29.97,ESE,121,0.0,3.0,94,0.00,,,0.00,Wunderground v.1.15,2013-03-22 08:27:00,
2013-03-22 04:32:00,42.3,40.7,29.97,ESE,121,0.0,3.0,94,0.00,,,0.00,Wunderground v.1.15,2013-03-22 08:32:00,
2013-03-22 04:37:00,42.2,40.6,29.97,ESE,121,0.0,3.0,94,0.00,,,0.00,Wunderground v.1.15,2013-03-22 08:37:00,
2013-03-22 04:42:00,41.7,39.8,29.97,ESE,121,0.0,3.0,93,0.00,,,0.00,Wunderground v.1.15,2013-03-22 08:42:00,
2013-03-22 04:48:00,41.1,39.2,29.97,ESE,121,0.0,3.0,93,0.00,,,0.00,Wunderground v.1.15,2013-03-22 08:48:00,
2013-03-22 04:54:00,40.9,39.0,29.97,ESE,121,0.0,3.0,93,0.00,,,0.00,Wunderground v.1.15,2013-03-22 08:54:00,
2013-03-22 05:00:00,41.2,39.6,29.97,ESE,121,0.0,3.0,94,0.00,,,0.00,Wunderground v.1.15,2013-03-22 09:00:00,
2013-03-22 05:05:00,41.2,39.6,29.97,ESE,121,0.0,3.0,94,0.00,,,0.00,Wunderground v.1.15,2013-03-22 09:05:00,
2013-03-22 05:11:00,41.3,39.7,29.97,ESE,121,0.0,3.0,94,0.00,,,0.00,Wunderground v.1.15,2013-03-22 09:11:00,
2013-03-22 05:17:00,41.8,40.2,29.96,ESE,121,0.0,3.0,94,0.00,,,0.00,Wunderground v.1.15,2013-03-22 09:17:00,
2013-03-22 05:22:00,41.6,40.0,29.97,ESE,121,0.0,3.0,94,0.00,,,0.00,Wunderground v.1.15,2013-03-22 09:22:00,
2013-03-22 05:27:00,41.4,39.8,29.98,ESE,121,0.0,3.0,94,0.00,,,0.00,Wunderground v.1.15,2013-03-22 09:27:00,
2013-03-22 05:33:00,41.3,39.7,29.98,ESE,121,0.0,3.0,94,0.00,,,0.00,Wunderground v.1.15,2013-03-22 09:33:00,
2013-03-22 05:39:00,41.6,40.0,29.98,ESE,121,0.0,3.0,94,0.00,,,0.00,Wunderground v.1.15,2013-03-22 09:39:00,
2013-03-22 05:44:00,41.7,40.1,29.98,ESE,121,0.0,3.0,94,0.00,,,0.00,Wunderground v.1.15,2013-03-22 09:44:00,
2013-03-22 05:49:00,41.8,40.2,29.99,ESE,121,0.0,3.0,94,0.00,,,0.00,Wunderground v.1.15,2013-03-22 09:49:00,
2013-03-22 05:54:00,41.5,39.9,29.99,ESE,121,0.0,3.0,94,0.00,,,0.00,Wunderground v.1.15,2013-03-22 09:54:00,
2013-03-22 06:00:00,41.3,39.7,29.99,ESE,121,0.0,3.0,94,0.00,,,0.00,Wunderground v.1.15,2013-03-22 10:00:00,
2013-03-22 06:06:00,41.2,39.6,29.99,ESE,121,0.0,3.0,94,0.00,,,0.00,Wunderground v.1.15,2013-03-22 10:06:00,
2013-03-22 06:12:00,41.5,40.2,30.00,ESE,121,0.0,3.0,95,0.00,,,0.00,Wunderground v.1.15,2013-03-22 10:12:00,
2013-03-22 06:17:00,41.4,39.8,30.00,ESE,121,0.0,3.0,94,0.00,,,0.00,Wunderground v.1.15,2013-03-22 10:17:00,
2013-03-22 06:22:00,41.2,39.6,29.99,ESE,121,0.0,3.0,94,0.00,,,0.00,Wunderground v.1.15,2013-03-22 10:22:00,
2013-03-22 06:27:00,41.1,39.5,30.00,ESE,121,0.0,3.0,94,0.00,,,0.00,Wunderground v.1.15,2013-03-22 10:27:00,
2013-03-22 06:32:00,41.2,39.9,30.00,ESE,121,0.0,3.0,95,0.00,,,0.00,Wunderground v.1.15,2013-03-22 10:32:00,
2013-03-22 06:37:00,41.3,40.0,30.00,ESE,121,0.0,3.0,95,0.00,,,0.00,Wunderground v.1.15,2013-03-22 10:37:00,
2013-03-22 06:42:00,41.1,39.5,30.01,ESE,121,0.0,3.0,94,0.00,,,0.00,Wunderground v.1.15,2013-03-22 10:42:00,
2013-03-22 06:48:00,40.8,39.5,30.03,ESE,121,0.0,3.0,95,0.00,,,0.00,Wunderground v.1.15,2013-03-22 10:48:00,
2013-03-22 06:53:00,40.5,38.9,30.03,ESE,121,0.0,3.0,94,0.00,,,0.00,Wunderground v.1.15,2013-03-22 10:53:00,
2013-03-22 06:58:00,40.5,39.2,30.04,ESE,121,0.0,3.0,95,0.00,,,0.00,Wunderground v.1.15,2013-03-22 10:58:00,
2013-03-22 07:03:00,40.4,39.1,30.04,ESE,121,0.0,0.0,95,0.00,,,0.00,Wunderground v.1.15,2013-03-22 11:03:00,
2013-03-22 07:08:00,40.5,39.2,30.04,ESE,121,0.0,0.0,95,0.00,,,0.00,Wunderground v.1.15,2013-03-22 11:08:00,
2013-03-22 07:13:00,40.5,39.2,30.03,ESE,121,0.0,0.0,95,0.00,,,0.00,Wunderground v.1.15,2013-03-22 11:13:00,
2013-03-22 07:19:00,40.8,39.5,30.04,ESE,121,0.0,0.0,95,0.00,,,0.00,Wunderground v.1.15,2013-03-22 11:19:00,
2013-03-22 07:25:00,41.1,39.8,30.04,ESE,121,0.0,0.0,95,0.00,,,0.00,Wunderground v.1.15,2013-03-22 11:25:00,
2013-03-22 07:31:00,40.6,39.3,30.04,ESE,121,0.0,0.0,95,0.00,,,0.00,Wunderground v.1.15,2013-03-22 11:31:00,
2013-03-22 07:36:00,40.3,39.0,30.04,ESE,121,0.0,0.0,95,0.00,,,0.00,Wunderground v.1.15,2013-03-22 11:36:00,
2013-03-22 07:42:00,40.6,39.3,30.05,ESE,121,0.0,0.0,95,0.00,,,0.00,Wunderground v.1.15,2013-03-22 11:42:00,
2013-03-22 07:47:00,40.8,39.5,30.05,ESE,121,0.0,0.0,95,0.00,,,0.00,Wunderground v.1.15,2013-03-22 11:47:00,
2013-03-22 07:52:00,41.3,40.0,30.05,ESE,121,0.0,0.0,95,0.00,,,0.00,Wunderground v.1.15,2013-03-22 11:52:00,
2013-03-22 07:58:00,41.5,40.2,30.05,WSW,251,0.0,1.0,95,0.00,,,0.00,Wunderground v.1.15,2013-03-22 11:58:00,
2013-03-22 08:04:00,42.5,41.4,30.05,SW,234,1.0,3.0,96,0.00,,,0.00,Wunderground v.1.15,2013-03-22 12:04:00,
2013-03-22 08:09:00,43.1,42.0,30.05,SSW,201,2.0,3.0,96,0.00,,,0.00,Wunderground v.1.15,2013-03-22 12:09:00,
2013-03-22 08:15:00,43.5,42.2,30.05,SSW,204,2.0,3.0,95,0.00,,,0.00,Wunderground v.1.15,2013-03-22 12:15:00,
2013-03-22 08:20:00,43.4,42.1,30.06,SSW,204,1.0,1.0,95,0.00,,,0.00,Wunderground v.1.15,2013-03-22 12:20:00,
2013-03-22 08:26:00,42.5,41.2,30.06,SSW,204,0.0,1.0,95,0.00,,,0.00,Wunderground v.1.15,2013-03-22 12:26:00,
2013-03-22 08:31:00,43.3,42.0,30.06,SSW,204,0.0,0.0,95,0.00,,,0.00,Wunderground v.1.15,2013-03-22 12:31:00,
2013-03-22 08:37:00,45.5,44.2,30.06,SSW,204,0.0,3.0,95,0.00,,,0.00,Wunderground v.1.15,2013-03-22 12:37:00,
2013-03-22 08:43:00,46.5,44.3,30.06,SSW,204,0.0,0.0,92,0.00,,,0.00,Wunderground v.1.15,2013-03-22 12:43:00,
2013-03-22 08:48:00,48.3,45.8,30.06,SW,222,1.0,3.0,91,0.00,,,0.00,Wunderground v.1.15,2013-03-22 12:48:00,
2013-03-22 08:53:00,49.6,45.6,30.06,SSW,212,1.0,5.0,86,0.00,,,0.00,Wunderground v.1.15,2013-03-22 12:53:00,
2013-03-22 08:59:00,50.1,44.8,30.06,SSW,207,2.0,5.0,82,0.00,,,0.00,Wunderground v.1.15,2013-03-22 12:59:00,
2013-03-22 09:04:00,50.5,44.9,30.06,SSW,203,1.0,2.0,81,0.00,,,0.00,Wunderground v.1.15,2013-03-22 13:04:00,
2013-03-22 09:09:00,51.0,45.0,30.06,SSW,198,0.0,2.0,80,0.00,,,0.00,Wunderground v.1.15,2013-03-22 13:09:00,
2013-03-22 09:15:00,51.6,45.6,30.06,SW,228,1.0,3.0,80,0.00,,,0.00,Wunderground v.1.15,2013-03-22 13:15:00,
2013-03-22 09:21:00,52.1,45.8,30.06,SW,230,2.0,3.0,79,0.00,,,0.00,Wunderground v.1.15,2013-03-22 13:21:00,
2013-03-22 09:26:00,52.5,45.8,30.06,SW,229,1.0,3.0,78,0.00,,,0.00,Wunderground v.1.15,2013-03-22 13:26:00,
2013-03-22 09:31:00,53.1,46.4,30.07,SW,215,1.0,4.0,78,0.00,,,0.00,Wunderground v.1.15,2013-03-22 13:31:00,
2013-03-22 09:37:00,54.3,46.9,30.06,SSW,206,1.0,4.0,76,0.00,,,0.00,Wunderground v.1.15,2013-03-22 13:37:00,
2013-03-22 09:42:00,55.6,46.7,30.06,South,189,1.0,2.0,72,0.00,,,0.00,Wunderground v.1.15,2013-03-22 13:42:00,
2013-03-22 09:48:00,57.2,47.9,30.07,South,190,0.0,2.0,71,0.00,,,0.00,Wunderground v.1.15,2013-03-22 13:48:00,
2013-03-22 09:54:00,57.9,47.0,30.06,South,185,1.0,2.0,67,0.00,,,0.00,Wunderground v.1.15,2013-03-22 13:54:00,
2013-03-22 10:00:00,59.2,47.8,30.06,SSW,208,1.0,4.0,66,0.00,,,0.00,Wunderground v.1.15,2013-03-22 14:00:00,
2013-03-22 10:05:00,59.7,48.3,30.07,South,191,1.0,4.0,66,0.00,,,0.00,Wunderground v.1.15,2013-03-22 14:05:00,
2013-03-22 10:10:00,60.0,47.8,30.07,SSW,212,1.0,5.0,64,0.00,,,0.00,Wunderground v.1.15,2013-03-22 14:10:00,
2013-03-22 10:16:00,61.3,47.3,30.07,SW,220,2.0,5.0,60,0.00,,,0.00,Wunderground v.1.15,2013-03-22 14:16:00,
2013-03-22 10:22:00,62.1,48.5,30.07,NNW,348,2.0,6.0,61,0.00,,,0.00,Wunderground v.1.15,2013-03-22 14:22:00,
2013-03-22 10:28:00,62.5,47.5,30.07,SSE,166,2.0,6.0,58,0.00,,,0.00,Wunderground v.1.15,2013-03-22 14:28:00,
2013-03-22 10:34:00,63.4,47.4,30.06,NNW,341,2.0,2.0,56,0.00,,,0.00,Wunderground v.1.15,2013-03-22 14:34:00,
2013-03-22 10:39:00,64.4,49.3,30.06,SW,221,1.0,2.0,58,0.00,,,0.00,Wunderground v.1.15,2013-03-22 14:39:00,
2013-03-22 10:44:00,65.3,47.2,30.06,NW,318,2.0,9.0,52,0.00,,,0.00,Wunderground v.1.15,2013-03-22 14:44:00,
2013-03-22 10:49:00,65.4,47.8,30.06,WSW,239,2.0,9.0,53,0.00,,,0.00,Wunderground v.1.15,2013-03-22 14:49:00,
2013-03-22 10:54:00,65.0,46.9,30.06,SW,236,2.0,5.0,52,0.00,,,0.00,Wunderground v.1.15,2013-03-22 14:54:00,
2013-03-22 10:59:00,65.5,47.4,30.06,NW,326,2.0,5.0,52,0.00,,,0.00,Wunderground v.1.15,2013-03-22 14:59:00,
2013-03-22 11:04:00,65.7,47.1,30.06,SSW,212,2.0,3.0,51,0.00,,,0.00,Wunderground v.1.15,2013-03-22 15:04:00,
2013-03-22 11:10:00,66.0,46.8,30.06,NW,321,2.0,3.0,50,0.00,,,0.00,Wunderground v.1.15,2013-03-22 15:10:00,
2013-03-22 11:16:00,65.9,46.7,30.06,SSW,197,3.0,11.0,50,0.00,,,0.00,Wunderground v.1.15,2013-03-22 15:16:00,
2013-03-22 11:22:00,66.8,45.9,30.06,West,278,2.0,6.0,47,0.00,,,0.00,Wunderground v.1.15,2013-03-22 15:22:00,
2013-03-22 11:27:00,66.3,45.5,30.06,South,175,2.0,9.0,47,0.00,,,0.00,Wunderground v.1.15,2013-03-22 15:27:00,
2013-03-22 11:33:00,67.0,46.1,30.06,WSW,238,2.0,4.0,47,0.00,,,0.00,Wunderground v.1.15,2013-03-22 15:33:00,
2013-03-22 11:38:00,66.6,45.7,30.06,WSW,255,2.0,4.0,47,0.00,,,0.00,Wunderground v.1.15,2013-03-22 15:38:00,
2013-03-22 11:44:00,67.0,46.7,30.06,West,270,1.0,4.0,48,0.00,,,0.00,Wunderground v.1.15,2013-03-22 15:44:00,
2013-03-22 11:49:00,67.6,45.5,30.06,SW,225,2.0,4.0,45,0.00,,,0.00,Wunderground v.1.15,2013-03-22 15:49:00,
2013-03-22 11:55:00,68.1,45.4,30.06,WSW,256,2.0,7.0,44,0.00,,,0.00,Wunderground v.1.15,2013-03-22 15:55:00,
2013-03-22 12:01:00,68.4,46.2,30.06,WNW,289,2.0,3.0,45,0.00,,,0.00,Wunderground v.1.15,2013-03-22 16:01:00,
2013-03-22 12:06:00,69.6,46.7,30.06,SSW,204,2.0,4.0,44,0.00,,,0.00,Wunderground v.1.15,2013-03-22 16:06:00,
2013-03-22 12:11:00,69.4,47.1,30.06,North,353,2.0,7.0,45,0.00,,,0.00,Wunderground v.1.15,2013-03-22 16:11:00,
2013-03-22 12:16:00,70.1,45.9,30.06,ENE,58,2.0,7.0,42,0.00,,,0.00,Wunderground v.1.15,2013-03-22 16:16:00,
2013-03-22 12:22:00,69.7,44.3,30.06,West,276,3.0,4.0,40,0.00,,,0.00,Wunderground v.1.15,2013-03-22 16:22:00,
2013-03-22 12:27:00,69.9,46.4,30.05,West,279,3.0,4.0,43,0.00,,,0.00,Wunderground v.1.15,2013-03-22 16:27:00,
2013-03-22 12:32:00,70.1,45.9,30.05,West,267,1.0,4.0,42,0.00,,,0.00,Wunderground v.1.15,2013-03-22 16:32:00,
2013-03-22 12:37:00,69.7,44.3,30.05,WNW,284,1.0,5.0,40,0.00,,,0.00,Wunderground v.1.15,2013-03-22 16:37:00,
2013-03-22 12:43:00,69.6,46.1,30.04,WNW,302,1.0,2.0,43,0.00,,,0.00,Wunderground v.1.15,2013-03-22 16:43:00,
2013-03-22 12:48:00,69.4,44.7,30.03,WNW,286,1.0,3.0,41,0.00,,,0.00,Wunderground v.1.15,2013-03-22 16:48:00,
2013-03-22 12:54:00,70.7,46.5,30.03,West,260,2.0,6.0,42,0.00,,,0.00,Wunderground v.1.15,2013-03-22 16:54:00,
2013-03-22 12:59:00,71.1,46.8,30.03,SW,236,2.0,6.0,42,0.00,,,0.00,Wunderground v.1.15,2013-03-22 16:59:00,
2013-03-22 13:05:00,72.0,46.3,30.02,SW,216,2.0,5.0,40,0.00,,,0.00,Wunderground v.1.15,2013-03-22 17:05:00,
2013-03-22 13:11:00,72.1,46.4,30.03,SSW,210,2.0,5.0,40,0.00,,,0.00,Wunderground v.1.15,2013-03-22 17:11:00,
2013-03-22 13:16:00,72.1,47.1,30.02,WSW,254,2.0,7.0,41,0.00,,,0.00,Wunderground v.1.15,2013-03-22 17:16:00,
2013-03-22 13:22:00,72.4,48.0,30.02,West,267,1.0,2.0,42,0.00,,,0.00,Wunderground v.1.15,2013-03-22 17:22:00,
2013-03-22 13:27:00,72.4,47.4,30.02,North,8,1.0,6.0,41,0.00,,,0.00,Wunderground v.1.15,2013-03-22 17:27:00,
2013-03-22 13:32:00,73.2,49.4,30.02,NE,41,2.0,3.0,43,0.00,,,0.00,Wunderground v.1.15,2013-03-22 17:32:00,
2013-03-22 13:37:00,74.0,48.8,30.02,NNW,335,2.0,4.0,41,0.00,,,0.00,Wunderground v.1.15,2013-03-22 17:37:00,
2013-03-22 13:42:00,74.9,48.9,30.01,NW,315,2.0,4.0,40,0.00,,,0.00,Wunderground v.1.15,2013-03-22 17:42:00,
2013-03-22 13:48:00,74.0,48.1,30.01,West,265,3.0,7.0,40,0.00,,,0.00,Wunderground v.1.15,2013-03-22 17:48:00,
2013-03-22 13:53:00,73.6,49.1,30.02,ENE,67,4.0,7.0,42,0.00,,,0.00,Wunderground v.1.15,2013-03-22 17:53:00,
2013-03-22 13:58:00,73.1,48.0,30.01,NW,315,3.0,7.0,41,0.00,,,0.00,Wunderground v.1.15,2013-03-22 17:58:00,
2013-03-22 14:04:00,73.9,48.7,30.01,NNW,346,3.0,6.0,41,0.00,,,0.00,Wunderground v.1.15,2013-03-22 18:04:00,
2013-03-22 14:09:00,74.8,48.2,30.01,North,351,3.0,6.0,39,0.00,,,0.00,Wunderground v.1.15,2013-03-22 18:09:00,
2013-03-22 14:15:00,73.8,47.3,30.00,ESE,111,3.0,9.0,39,0.00,,,0.00,Wunderground v.1.15,2013-03-22 18:15:00,
2013-03-22 14:21:00,75.0,49.0,30.00,WNW,283,3.0,10.0,40,0.00,,,0.00,Wunderground v.1.15,2013-03-22 18:21:00,
2013-03-22 14:26:00,74.2,48.3,30.00,SW,227,3.0,10.0,40,0.00,,,0.00,Wunderground v.1.15,2013-03-22 18:26:00,
2013-03-22 14:31:00,74.0,49.4,30.00,West,281,1.0,4.0,42,0.00,,,0.00,Wunderground v.1.15,2013-03-22 18:31:00,
2013-03-22 14:36:00,74.8,49.5,30.00,NNE,13,1.0,9.0,41,0.00,,,0.00,Wunderground v.1.15,2013-03-22 18:36:00,
2013-03-22 14:42:00,75.1,49.1,29.99,NNE,29,3.0,6.0,40,0.00,,,0.00,Wunderground v.1.15,2013-03-22 18:42:00,
2013-03-22 14:47:00,75.3,48.6,29.99,NE,40,2.0,6.0,39,0.00,,,0.00,Wunderground v.1.15,2013-03-22 18:47:00,
2013-03-22 14:52:00,75.1,49.1,29.99,SSW,197,1.0,1.0,40,0.00,,,0.00,Wunderground v.1.15,2013-03-22 18:52:00,
2013-03-22 14:58:00,75.6,49.6,29.98,NW,316,1.0,2.0,40,0.00,,,0.00,Wunderground v.1.15,2013-03-22 18:58:00,
2013-03-22 15:04:00,75.4,48.7,29.98,WSW,252,1.0,3.0,39,0.00,,,0.00,Wunderground v.1.15,2013-03-22 19:04:00,
2013-03-22 15:10:00,75.1,50.4,29.98,SW,231,1.0,1.0,42,0.00,,,0.00,Wunderground v.1.15,2013-03-22 19:10:00,
2013-03-22 15:16:00,75.3,48.6,29.98,NE,36,2.0,5.0,39,0.00,,,0.00,Wunderground v.1.15,2013-03-22 19:16:00,
2013-03-22 15:22:00,75.7,48.3,29.97,NE,37,1.0,2.0,38,0.00,,,0.00,Wunderground v.1.15,2013-03-22 19:22:00,
2013-03-22 15:28:00,76.2,50.8,29.97,West,270,0.0,6.0,41,0.00,,,0.00,Wunderground v.1.15,2013-03-22 19:28:00,
2013-03-22 15:33:00,78.1,49.7,29.96,West,279,2.0,4.0,37,0.00,,,0.00,Wunderground v.1.15,2013-03-22 19:33:00,
2013-03-22 15:39:00,78.5,51.5,29.96,NW,326,2.0,8.0,39,0.00,,,0.00,Wunderground v.1.15,2013-03-22 19:39:00,
2013-03-22 15:44:00,78.3,49.1,29.96,NW,312,3.0,6.0,36,0.00,,,0.00,Wunderground v.1.15,2013-03-22 19:44:00,
2013-03-22 15:49:00,77.2,48.2,29.95,NNE,26,3.0,6.0,36,0.00,,,0.00,Wunderground v.1.15,2013-03-22 19:49:00,
2013-03-22 15:55:00,77.1,50.9,29.96,NNE,13,2.0,6.0,40,0.00,,,0.00,Wunderground v.1.15,2013-03-22 19:55:00,
2013-03-22 16:01:00,77.2,50.3,29.96,NNE,14,3.0,3.0,39,0.00,,,0.00,Wunderground v.1.15,2013-03-22 20:01:00,
2013-03-22 16:06:00,76.8,50.6,29.96,North,8,4.0,8.0,40,0.00,,,0.00,Wunderground v.1.15,2013-03-22 20:06:00,
2013-03-22 16:12:00,77.0,50.1,29.95,ENE,59,3.0,3.0,39,0.00,,,0.00,Wunderground v.1.15,2013-03-22 20:12:00,
2013-03-22 16:18:00,76.4,50.3,29.95,NE,47,1.0,4.0,40,0.00,,,0.00,Wunderground v.1.15,2013-03-22 20:18:00,
2013-03-22 16:23:00,76.1,49.3,29.95,NNW,334,1.0,4.0,39,0.00,,,0.00,Wunderground v.1.15,2013-03-22 20:23:00,
2013-03-22 16:28:00,77.1,51.6,29.94,NNE,17,1.0,4.0,41,0.00,,,0.00,Wunderground v.1.15,2013-03-22 20:28:00,
2013-03-22 16:33:00,77.0,51.5,29.94,NE,45,1.0,4.0,41,0.00,,,0.00,Wunderground v.1.15,2013-03-22 20:33:00,
2013-03-22 16:39:00,76.7,50.6,29.94,NE,44,1.0,4.0,40,0.00,,,0.00,Wunderground v.1.15,2013-03-22 20:39:00,
2013-03-22 16:44:00,76.5,50.4,29.94,NW,319,1.0,2.0,40,0.00,,,0.00,Wunderground v.1.15,2013-03-22 20:44:00,
2013-03-22 16:49:00,76.8,51.3,29.94,West,268,1.0,4.0,41,0.00,,,0.00,Wunderground v.1.15,2013-03-22 20:49:00,
2013-03-22 16:55:00,76.2,49.4,29.94,NNE,22,1.0,5.0,39,0.00,,,0.00,Wunderground v.1.15,2013-03-22 20:55:00,
2013-03-22 17:01:00,76.6,49.8,29.94,NNE,21,1.0,3.0,39,0.00,,,0.00,Wunderground v.1.15,2013-03-22 21:01:00,
2013-03-22 17:07:00,76.9,50.7,29.94,NNE,29,1.0,3.0,40,0.00,,,0.00,Wunderground v.1.15,2013-03-22 21:07:00,
2013-03-22 17:13:00,76.2,52.1,29.95,North,4,1.0,1.0,43,0.00,,,0.00,Wunderground v.1.15,2013-03-22 21:13:00,
2013-03-22 17:19:00,75.8,51.1,29.95,NNW,345,1.0,1.0,42,0.00,,,0.00,Wunderground v.1.15,2013-03-22 21:19:00,
2013-03-22 17:25:00,75.8,51.7,29.95,NNW,344,0.0,2.0,43,0.00,,,0.00,Wunderground v.1.15,2013-03-22 21:25:00,
2013-03-22 17:31:00,75.8,52.3,29.94,NNW,330,0.0,0.0,44,0.00,,,0.00,Wunderground v.1.15,2013-03-22 21:31:00,
2013-03-22 17:36:00,75.7,51.6,29.95,NW,315,0.0,2.0,43,0.00,,,0.00,Wunderground v.1.15,2013-03-22 21:36:00,
2013-03-22 17:42:00,75.8,51.7,29.94,NW,315,0.0,0.0,43,0.00,,,0.00,Wunderground v.1.15,2013-03-22 21:42:00,
2013-03-22 17:47:00,75.8,54.1,29.94,NW,315,0.0,0.0,47,0.00,,,0.00,Wunderground v.1.15,2013-03-22 21:47:00,
2013-03-22 17:53:00,75.6,52.1,29.94,NW,315,0.0,0.0,44,0.00,,,0.00,Wunderground v.1.15,2013-03-22 21:53:00,
2013-03-22 17:59:00,75.1,52.9,29.95,NW,315,0.0,0.0,46,0.00,,,0.00,Wunderground v.1.15,2013-03-22 21:59:00,
2013-03-22 18:04:00,75.0,53.4,29.95,NW,314,0.0,2.0,47,0.00,,,0.00,Wunderground v.1.15,2013-03-22 22:04:00,
2013-03-22 18:09:00,73.5,51.4,29.95,SW,232,1.0,9.0,46,0.00,,,0.00,Wunderground v.1.15,2013-03-22 22:09:00,
2013-03-22 18:15:00,71.5,51.9,29.96,NNW,347,2.0,4.0,50,0.00,,,0.00,Wunderground v.1.15,2013-03-22 22:15:00,
2013-03-22 18:21:00,70.8,51.8,29.96,SSW,198,1.0,1.0,51,0.00,,,0.00,Wunderground v.1.15,2013-03-22 22:21:00,
2013-03-22 18:26:00,70.4,51.9,29.97,WSW,237,1.0,2.0,52,0.00,,,0.00,Wunderground v.1.15,2013-03-22 22:26:00,
2013-03-22 18:32:00,70.1,51.7,29.98,West,266,1.0,3.0,52,0.00,,,0.00,Wunderground v.1.15,2013-03-22 22:32:00,
2013-03-22 18:37:00,70.0,52.1,29.98,West,280,1.0,3.0,53,0.00,,,0.00,Wunderground v.1.15,2013-03-22 22:37:00,
2013-03-22 18:42:00,69.7,51.3,30.00,West,266,1.0,2.0,52,0.00,,,0.00,Wunderground v.1.15,2013-03-22 22:42:00,
2013-03-22 18:48:00,69.4,53.5,29.99,West,279,1.0,2.0,57,0.00,,,0.01,Wunderground v.1.15,2013-03-22 22:48:00,
2013-03-22 18:53:00,66.8,55.9,30.00,West,268,0.0,0.0,68,0.14,,,0.02,Wunderground v.1.15,2013-03-22 22:53:00,
2013-03-22 18:59:00,64.0,57.0,29.98,West,268,0.0,0.0,78,0.08,,,0.03,Wunderground v.1.15,2013-03-22 22:59:00,
2013-03-22 19:04:00,62.5,57.3,29.99,West,268,0.0,0.0,83,0.07,,,0.03,Wunderground v.1.15,2013-03-22 23:04:00,
2013-03-22 19:10:00,61.9,58.0,29.99,West,268,0.0,0.0,87,0.04,,,0.03,Wunderground v.1.15,2013-03-22 23:10:00,
2013-03-22 19:17:00,61.7,58.4,30.00,West,268,0.0,0.0,89,0.00,,,0.03,Wunderground v.1.15,2013-03-22 23:17:00,
2013-03-22 19:23:00,61.6,58.3,30.00,West,269,0.0,2.0,89,0.00,,,0.03,Wunderground v.1.15,2013-03-22 23:23:00,
2013-03-22 19:28:00,61.5,58.2,30.00,West,269,0.0,2.0,89,0.00,,,0.03,Wunderground v.1.15,2013-03-22 23:28:00,
2013-03-22 19:33:00,61.5,58.2,29.99,West,276,0.0,2.0,89,0.00,,,0.03,Wunderground v.1.15,2013-03-22 23:33:00,
2013-03-22 19:39:00,61.6,58.3,30.00,WNW,283,1.0,2.0,89,0.00,,,0.03,Wunderground v.1.15,2013-03-22 23:39:00,
2013-03-22 19:45:00,61.8,58.2,30.01,WNW,291,1.0,2.0,88,0.00,,,0.03,Wunderground v.1.15,2013-03-22 23:45:00,
2013-03-22 19:51:00,61.7,57.8,30.01,NW,310,0.0,4.0,87,0.00,,,0.03,Wunderground v.1.15,2013-03-22 23:51:00,
2013-03-22 19:56:00,61.6,57.7,30.01,WNW,303,1.0,4.0,87,0.00,,,0.03,Wunderground v.1.15,2013-03-22 23:56:00,
2013-03-22 20:01:00,61.5,57.6,30.01,WNW,293,0.0,0.0,87,0.00,,,0.03,Wunderground v.1.15,2013-03-23 00:01:00,
2013-03-22 20:06:00,61.4,57.5,30.00,WNW,287,0.0,0.0,87,0.00,,,0.03,Wunderground v.1.15,2013-03-23 00:06:00,
2013-03-22 20:11:00,61.2,57.6,30.01,WNW,287,0.0,0.0,88,0.00,,,0.03,Wunderground v.1.15,2013-03-23 00:11:00,
2013-03-22 20:17:00,61.1,57.8,30.00,WNW,287,0.0,0.0,89,0.00,,,0.03,Wunderground v.1.15,2013-03-23 00:17:00,
2013-03-22 20:22:00,61.1,57.8,30.01,WNW,287,0.0,0.0,89,0.00,,,0.03,Wunderground v.1.15,2013-03-23 00:22:00,
2013-03-22 20:28:00,61.1,57.8,30.01,WNW,287,0.0,0.0,89,0.00,,,0.03,Wunderground v.1.15,2013-03-23 00:28:00,
2013-03-22 20:34:00,61.1,57.8,30.01,WNW,287,0.0,0.0,89,0.00,,,0.03,Wunderground v.1.15,2013-03-23 00:34:00,
2013-03-22 20:39:00,61.0,58.0,30.01,WNW,287,0.0,0.0,90,0.00,,,0.03,Wunderground v.1.15,2013-03-23 00:39:00,
2013-03-22 20:44:00,60.7,57.7,30.01,WNW,287,0.0,1.0,90,0.00,,,0.03,Wunderground v.1.15,2013-03-23 00:44:00,
2013-03-22 20:49:00,60.6,58.0,30.02,WNW,287,0.0,1.0,91,0.00,,,0.03,Wunderground v.1.15,2013-03-23 00:49:00,
2013-03-22 20:54:00,60.7,58.1,30.02,WNW,287,0.0,0.0,91,0.00,,,0.03,Wunderground v.1.15,2013-03-23 00:54:00,
2013-03-22 21:00:00,60.8,58.2,30.02,WNW,287,0.0,0.0,91,0.00,,,0.03,Wunderground v.1.15,2013-03-23 01:00:00,
2013-03-22 21:06:00,60.9,58.6,30.02,WNW,287,0.0,0.0,92,0.00,,,0.03,Wunderground v.1.15,2013-03-23 01:06:00,
2013-03-22 21:11:00,60.7,58.4,30.02,WNW,287,0.0,0.0,92,0.00,,,0.03,Wunderground v.1.15,2013-03-23 01:11:00,
2013-03-22 21:16:00,60.6,58.3,30.02,WNW,287,0.0,0.0,92,0.00,,,0.03,Wunderground v.1.15,2013-03-23 01:16:00,
2013-03-22 21:22:00,60.4,58.1,30.02,WNW,287,0.0,0.0,92,0.00,,,0.03,Wunderground v.1.15,2013-03-23 01:22:00,
2013-03-22 21:27:00,60.2,57.9,30.02,WNW,287,0.0,0.0,92,0.00,,,0.03,Wunderground v.1.15,2013-03-23 01:27:00,
2013-03-22 21:32:00,60.1,57.8,30.02,WNW,287,0.0,0.0,92,0.00,,,0.03,Wunderground v.1.15,2013-03-23 01:32:00,
2013-03-22 21:37:00,60.1,58.1,30.02,WNW,287,0.0,0.0,93,0.00,,,0.03,Wunderground v.1.15,2013-03-23 01:37:00,
2013-03-22 21:42:00,60.1,58.1,30.03,WNW,287,0.0,0.0,93,0.00,,,0.03,Wunderground v.1.15,2013-03-23 01:42:00,
2013-03-22 21:48:00,60.0,58.0,30.03,WNW,287,0.0,0.0,93,0.00,,,0.03,Wunderground v.1.15,2013-03-23 01:48:00,
2013-03-22 21:54:00,60.0,58.0,30.03,WNW,287,0.0,1.0,93,0.00,,,0.03,Wunderground v.1.15,2013-03-23 01:54:00,
2013-03-22 22:00:00,60.2,58.2,30.03,WNW,287,0.0,0.0,93,0.00,,,0.03,Wunderground v.1.15,2013-03-23 02:00:00,
2013-03-22 22:06:00,60.4,58.4,30.03,WNW,287,0.0,0.0,93,0.00,,,0.03,Wunderground v.1.15,2013-03-23 02:06:00,
2013-03-22 22:12:00,60.6,58.3,30.02,WNW,287,0.0,2.0,92,0.00,,,0.03,Wunderground v.1.15,2013-03-23 02:12:00,
2013-03-22 22:18:00,60.7,58.4,30.02,WNW,287,0.0,2.0,92,0.00,,,0.03,Wunderground v.1.15,2013-03-23 02:18:00,
2013-03-22 22:23:00,60.7,58.4,30.02,WNW,287,0.0,0.0,92,0.00,,,0.03,Wunderground v.1.15,2013-03-23 02:23:00,
2013-03-22 22:29:00,60.5,58.2,30.02,WNW,286,0.0,2.0,92,0.00,,,0.03,Wunderground v.1.15,2013-03-23 02:29:00,
2013-03-22 22:35:00,60.4,58.1,30.02,WNW,285,0.0,0.0,92,0.00,,,0.03,Wunderground v.1.15,2013-03-23 02:35:00,
2013-03-22 22:41:00,60.5,58.2,30.03,WNW,285,0.0,0.0,92,0.00,,,0.03,Wunderground v.1.15,2013-03-23 02:41:00,
2013-03-22 22:47:00,60.7,58.4,30.03,WNW,285,0.0,0.0,92,0.00,,,0.03,Wunderground v.1.15,2013-03-23 02:47:00,
2013-03-22 22:52:00,60.8,58.5,30.04,WNW,285,0.0,0.0,92,0.00,,,0.03,Wunderground v.1.15,2013-03-23 02:52:00,
2013-03-22 22:57:00,60.8,58.5,30.03,WNW,285,0.0,0.0,92,0.00,,,0.03,Wunderground v.1.15,2013-03-23 02:57:00,
2013-03-22 23:03:00,60.7,58.1,30.04,WNW,285,0.0,0.0,91,0.00,,,0.03,Wunderground v.1.15,2013-03-23 03:03:00,
2013-03-22 23:09:00,60.4,57.8,30.04,WNW,285,0.0,0.0,91,0.00,,,0.03,Wunderground v.1.15,2013-03-23 03:09:00,
2013-03-22 23:14:00,60.2,57.9,30.04,WNW,285,0.0,0.0,92,0.00,,,0.03,Wunderground v.1.15,2013-03-23 03:14:00,
2013-03-22 23:20:00,60.1,57.8,30.04,WNW,285,0.0,0.0,92,0.00,,,0.03,Wunderground v.1.15,2013-03-23 03:20:00,
2013-03-22 23:25:00,60.2,58.2,30.04,WNW,285,0.0,0.0,93,0.00,,,0.03,Wunderground v.1.15,2013-03-23 03:25:00,
2013-03-22 23:31:00,60.3,58.3,30.04,WNW,285,0.0,0.0,93,0.00,,,0.03,Wunderground v.1.15,2013-03-23 03:31:00,
2013-03-22 23:37:00,60.3,58.3,30.04,WNW,285,0.0,0.0,93,0.00,,,0.03,Wunderground v.1.15,2013-03-23 03:37:00,
2013-03-22 23:42:00,60.4,58.4,30.03,WNW,285,0.0,0.0,93,0.00,,,0.03,Wunderground v.1.15,2013-03-23 03:42:00,
2013-03-22 23:47:00,60.5,58.5,30.03,WNW,285,0.0,0.0,93,0.00,,,0.03,Wunderground v.1.15,2013-03-23 03:47:00,
2013-03-22 23:53:00,60.4,58.4,30.03,WNW,285,0.0,1.0,93,0.00,,,0.03,Wunderground v.1.15,2013-03-23 03:53:00,
2013-03-22 23:58:00,60.5,58.5,30.03,WNW,285,0.0,1.0,93,0.00,,,0.03,Wunderground v.1.15,2013-03-23 03:58:00,